NEXUS (FO-99) (43937 NORAD) Tracking and Keplerian Element Data

This shows tracking and keplerian element data for the satellite.

Feedback or suggestion? Click here.




ElementValue
Catalog43937
NameNEXUS (FO-99)
Epoch Orbit14969
Epoch Day269.63360848
Epoch Year2021
RAAN308.7399
Inclination97.1672
Eccentricity0.0023241
Argument of Perigee18.1179
Mean Anonmoly342.0883
Mean Motion15.26252897
Decay Rate4.259E-05
L11 43937U 19003F 21269.63360848 .00004259 00000-0 16586-3 0 9996
L22 43937 97.1672 308.7399 0023241 18.1179 342.0883 15.26252897149692

Live tracking and technical data element details for NEXUS (FO-99) (NORAD 43937). NEXUS (FO-99) can be tracked NOW for your location showing map with azimuth and elevation plus other details from your city location.

Track the satellite on the map from your city or location and see movement details for azimuth, elevation, latitude, longitude, range, height, and movement on the map or in text.







IsCatalogInMostPopularTable: catalog: 43937, numindb: 548
Update: records affected: 1



GetName: 43937 NEXUS (FO-99)

Hit Count: updated at: Tue, 28 Sep 2021 15:45:03 GMT